World > North America > United States > New York > Blasdell

Blasdell, NY Hourly Weather Conditions

Feedback E-mail the Weather

Quick WX

Blasdell, NY Weather Maps

°F °C°F °C
Blasdell Weather Map
UTC Time: 11/30/2022, 04:44
Your Time:

Blasdell, NY Regional Weather

Expires:202211300500;;040758
ASUS41 KALY 300410
RWRALY

NEW YORK STATE HOURLY WEATHER ROUNDUP
NATIONAL WEATHER SERVICE ALBANY NY
1100 PM EST TUE NOV 29 2022

NOTE: "FAIR" INDICATES FEW OR NO CLOUDS BELOW 12,000 FEET WITH NO
SIGNIFICANT WEATHER AND/OR NO OBSTRUCTIONS TO VISIBILITY.


NYZ001>004-010>016-019>021-085-300500-
WEST

  
CITY           SKY/WX    TMP DP  RH WIND       PRES   REMARKS
NIAGARA FALLS  MOCLDY    40  34  79 E7        29.86F                  
BUFFALO        MOCLDY    45  34  65 SE9       29.86F                  
DUNKIRK        MOCLDY    52  35  52 S22G41    29.82F                  
JAMESTOWN      MOCLDY    41  34  76 S16G23    29.87F                  
WELLSVILLE     MOCLDY    40  31  70 S18G30    29.96F WCI  31          
ROCHESTER      MOCLDY    38  31  76 SE9       29.95F WCI  31          
PENN YAN       MOCLDY    40  31  70 S12       30.00F WCI  33          
$$

             KEY
       WCI = WIND CHILL INDEX
       VSB = VISIBILITY
       HX  = HEAT INDEX
$$
  

SKY/WX - Weather  TMP - Temperature  DP - Dew Point  RH - Humidity
WIND - Wind Direction/Speed PRES - Barometric Pressure VSB - Visibility
WCI - Wind Chill Index E13G22 Wind - East Wind 13 mph/Gusts of 22 mph

Trending Headlines

Trending Entertainment Headlines

Blasdell Radar Loop

Use the map search tool if you want to place a location marker on the radar map...

Blasdell Quick Facts

National Two Day Weather Forecast


E-mail the Blasdell Weather Forecast

Voice your opinion or tell us about page issues...